This is the latest recevied weather packets stored in our database for station/object VE1DX. If no packets are shown the sender has not sent any weather packets the latest 10 day(s).
| Time | Temp. | Humidity | Pressure | Rain* | Wind** | Luminosity | Snow |
|---|---|---|---|---|---|---|---|
| 1778104516 | 12.22° C | 77% | 1016.7 hPa | 0 mm | - | - | - |
| 1778104216 | 12.22° C | 77% | 1016.8 hPa | 0 mm | - | - | - |
| 1778103916 | 12.78° C | 76% | 1016.7 hPa | 0 mm | - | - | - |
| 1778103616 | 12.78° C | 76% | 1016.7 hPa | 0 mm | - | - | - |
| 1778103316 | 12.78° C | 75% | 1016.6 hPa | 0 mm | - | - | - |
| 1778103016 | 13.33° C | 75% | 1016.6 hPa | 0 mm | - | - | - |
| 1778102717 | 13.89° C | 75% | 1016.6 hPa | 0 mm | - | - | - |
| 1778102416 | 13.89° C | 75% | 1016.6 hPa | 0 mm | - | - | - |
| 1778102116 | 14.44° C | 74% | 1016.5 hPa | 0 mm | - | - | - |
| 1778101816 | 14.44° C | 74% | 1016.3 hPa | 0 mm | - | - | - |
| 1778101516 | 14.44° C | 74% | 1016.3 hPa | 0 mm | - | - | - |
| 1778101216 | 15° C | 74% | 1016.3 hPa | 0 mm | - | - | - |
| 1778100916 | 15° C | 73% | 1016.4 hPa | 0 mm | - | - | - |
| 1778100616 | 15.56° C | 73% | 1016.5 hPa | 0 mm | - | - | - |
| 1778100316 | 15.56° C | 72% | 1016.5 hPa | 0 mm | - | - | - |
| 1778100017 | 16.11° C | 72% | 1016.5 hPa | 0 mm | - | - | - |
| 1778099716 | 16.11° C | 71% | 1016.6 hPa | 0 mm | - | - | - |
| 1778099417 | 16.67° C | 71% | 1016.6 hPa | 0 mm | - | - | - |
| 1778099116 | 16.67° C | 71% | 1016.5 hPa | 0 mm | - | - | - |
| 1778098816 | 17.22° C | 71% | 1016.6 hPa | 0 mm | - | - | - |
| 1778098517 | 16.67° C | 72% | 1016.7 hPa | 0 mm | - | - | - |
| 1778098216 | 16.67° C | 72% | 1016.7 hPa | 0 mm | - | - | - |
| 1778097916 | 16.67° C | 72% | 1016.7 hPa | 0 mm | - | - | - |
| 1778097616 | 16.67° C | 71% | 1016.8 hPa | 0 mm | - | - | - |
| 1778097316 | 16.67° C | 71% | 1016.8 hPa | 0 mm | - | - | - |
* Rain latest hour (hover to see other rain measurements)
** Current wind speed in m/s (hover to see current wind gust speed)